2015-10-21 00:06:10 r, 15.74m,0000000045Hz,0000010290c,0000000.022s, 022.2C,00002195
2015-10-21 00:16:12 r, 15.66m,0000000048Hz,0000009577c,0000000.021s, 022.2C,00002195
2015-10-21 00:26:11 r, 15.62m,0000000050Hz,0000009216c,0000000.020s, 022.2C,00002195
2015-10-21 00:36:12 r, 15.60m,0000000050Hz,0000009126c,0000000.020s, 022.2C,00002195
2015-10-21 00:46:11 r, 15.59m,0000000051Hz,0000008962c,0000000.019s, 022.2C,00002195
2015-10-21 00:56:10 r, 15.58m,0000000052Hz,0000008941c,0000000.019s, 021.9C,00002195
2015-10-21 01:06:10 r, 15.57m,0000000052Hz,0000008809c,0000000.019s, 021.9C,00002195
2015-10-21 01:16:13 r, 16.33m,0000000027Hz,0000017827c,0000000.039s, 021.9C,00002195
2015-10-21 01:26:10 r, 16.36m,0000000025Hz,0000018272c,0000000.040s, 021.9C,00002195
2015-10-21 01:36:12 r, 16.02m,0000000035Hz,0000013332c,0000000.029s, 021.9C,00002195
2015-10-21 01:46:11 r, 16.10m,0000000032Hz,0000014386c,0000000.031s, 021.9C,00002195
2015-10-21 01:56:10 r, 16.02m,0000000034Hz,0000013354c,0000000.029s, 021.9C,00002195
2015-10-21 02:06:10 r, 15.74m,0000000045Hz,0000010247c,0000000.022s, 021.9C,00002195
2015-10-21 02:16:10 r, 15.66m,0000000048Hz,0000009542c,0000000.021s, 021.9C,00002195
2015-10-21 02:26:10 r, 15.60m,0000000051Hz,0000009134c,0000000.020s, 021.9C,00002195
2015-10-21 02:36:13 r, 15.53m,0000000055Hz,0000008448c,0000000.018s, 021.9C,00002195
2015-10-21 02:46:11 r, 16.31m,0000000026Hz,0000017436c,0000000.038s, 021.9C,00002195
2015-10-21 02:56:10 r, 16.10m,0000000032Hz,0000014384c,0000000.031s, 021.9C,00002195
2015-10-21 03:06:11 r, 15.69m,0000000047Hz,0000009807c,0000000.021s, 021.9C,00002195
2015-10-21 03:16:13 r, 15.74m,0000000045Hz,0000010264c,0000000.022s, 021.9C,00002195
2015-10-21 03:26:10 r, 15.69m,0000000047Hz,0000009792c,0000000.021s, 021.9C,00002195
2015-10-21 03:36:11 r, 15.71m,0000000045Hz,0000010028c,0000000.022s, 022.2C,00002195
2015-10-21 03:46:11 r, 15.77m,0000000043Hz,0000010591c,0000000.023s, 022.2C,00002195
2015-10-21 03:56:10 r, 15.80m,0000000042Hz,0000010914c,0000000.024s, 022.2C,00002195
2015-10-21 04:06:13 r, 15.92m,0000000038Hz,0000012210c,0000000.026s, 022.2C,00002195
2015-10-21 04:16:11 r, 15.62m,0000000049Hz,0000009245c,0000000.020s, 022.2C,00002195
2015-10-21 04:26:10 r, 15.59m,0000000052Hz,0000008977c,0000000.019s, 022.2C,00002195
2015-10-21 04:36:10 r, 15.45m,0000000058Hz,0000007843c,0000000.017s, 022.2C,00002195
2015-10-21 04:46:12 r, 15.42m,0000000061Hz,0000007647c,0000000.017s, 022.2C,00002195
2015-10-21 04:56:10 r, 15.49m,0000000056Hz,0000008188c,0000000.018s, 022.2C,00002195
2015-10-21 05:06:12 r, 15.57m,0000000052Hz,0000008796c,0000000.019s, 022.2C,00002195
2015-10-21 05:16:11 r, 15.84m,0000000041Hz,0000011266c,0000000.024s, 022.2C,00002195
2015-10-21 05:26:10 r, 15.97m,0000000036Hz,0000012737c,0000000.028s, 021.9C,00002195
2015-10-21 05:36:11 r, 16.03m,0000000034Hz,0000013444c,0000000.029s, 021.9C,00002195
2015-10-21 05:46:11 r, 16.24m,0000000028Hz,0000016295c,0000000.035s, 021.9C,00002195
2015-10-21 05:56:12 r, 16.10m,0000000032Hz,0000014287c,0000000.031s, 021.9C,00002195
2015-10-21 06:06:11 r, 15.71m,0000000045Hz,0000010103c,0000000.022s, 021.9C,00002195
2015-10-21 06:16:10 r, 15.73m,0000000045Hz,0000010180c,0000000.022s, 021.9C,00002195
2015-10-21 06:26:12 r, 15.81m,0000000042Hz,0000010961c,0000000.024s, 021.9C,00002195
2015-10-21 06:36:11 r, 15.65m,0000000048Hz,0000009531c,0000000.021s, 021.5C,00002195
2015-10-21 06:46:11 r, 16.52m,0000000022Hz,0000021154c,0000000.046s, 021.5C,00002195
2015-10-21 06:56:10 r, 16.02m,0000000035Hz,0000013369c,0000000.029s, 021.5C,00002195
2015-10-21 07:06:10 r, 15.84m,0000000041Hz,0000011299c,0000000.025s, 021.5C,00002195
2015-10-21 07:16:11 r, 14.86m,0000000100Hz,0000004576c,0000000.010s, 021.5C,00002195
2015-10-21 07:26:13 r, 13.35m,0000000406Hz,0000000000c,0000000.000s, 021.5C,00002195
2015-10-21 07:36:11 r, 11.38m,0000002501Hz,0000000000c,0000000.000s, 021.2C,00002195
2015-10-21 07:46:10 r, 09.32m,0000016740Hz,0000000000c,0000000.000s, 021.2C,00002195
2015-10-21 07:56:10 r, 07.76m,0000070438Hz,0000000000c,0000000.000s, 021.2C,00002195
2015-10-21 08:06:12 r, 06.89m,0000156415Hz,0000000000c,0000000.000s, 021.2C,00002195
2015-10-21 08:16:11 r, 06.10m,0000324535Hz,0000000000c,0000000.000s, 021.5C,00002195
2015-10-21 08:26:10 r, 00.00m,0000514088Hz,0000000000c,0000000.000s, 021.5C,00002195
2015-10-21 08:36:13 r, 00.00m,0000563495Hz,0000000000c,0000000.000s, 021.9C,00002195
2015-10-21 08:46:11 r, 00.00m,0000563588Hz,0000000000c,0000000.000s, 022.2C,00002195
2015-10-21 08:56:10 r, 00.00m,0000563562Hz,0000000000c,0000000.000s, 022.2C,00002195
2015-10-21 09:06:13 r, 00.00m,0000563524Hz,0000000000c,0000000.000s, 022.2C,00002195
2015-10-21 09:16:10 r, 00.00m,0000563520Hz,0000000000c,0000000.000s, 022.2C,00002195
2015-10-21 09:26:10 r, 00.00m,0000563593Hz,0000000000c,0000000.000s, 022.8C,00002195
2015-10-21 09:36:12 r, 00.00m,0000563691Hz,0000000000c,0000000.000s, 023.8C,00002195
2015-10-21 09:46:10 r, 00.00m,0000563738Hz,0000000000c,0000000.000s, 024.8C,00002195
2015-10-21 09:56:10 r, 00.00m,0000563856Hz,0000000000c,0000000.000s, 025.7C,00002195
2015-10-21 10:06:12 r, 00.00m,0000564010Hz,0000000000c,0000000.000s, 026.4C,00002195
2015-10-21 10:16:11 r, 00.00m,0000564178Hz,0000000000c,0000000.000s, 027.0C,00002195
2015-10-21 10:26:10 r, 00.00m,0000564178Hz,0000000000c,0000000.000s, 027.3C,00002195
2015-10-21 10:36:12 r, 00.00m,0000564192Hz,0000000000c,0000000.000s, 027.7C,00002195
2015-10-21 10:46:11 r, 00.00m,0000564225Hz,0000000000c,0000000.000s, 028.3C,00002195
2015-10-21 10:56:10 r, 00.00m,0000564276Hz,0000000000c,0000000.000s, 028.6C,00002195
2015-10-21 11:06:13 r, 00.00m,0000564296Hz,0000000000c,0000000.000s, 029.3C,00002195
2015-10-21 11:16:10 r, 00.00m,0000564381Hz,0000000000c,0000000.000s, 029.9C,00002195
2015-10-21 11:26:10 r, 00.00m,0000564412Hz,0000000000c,0000000.000s, 029.9C,00002195
2015-10-21 11:36:13 r, 00.00m,0000564488Hz,0000000000c,0000000.000s, 030.2C,00002195
2015-10-21 11:46:11 r, 00.00m,0000564584Hz,0000000000c,0000000.000s, 031.2C,00002195
2015-10-21 11:56:10 r, 00.00m,0000564644Hz,0000000000c,0000000.000s, 031.5C,00002195
2015-10-21 12:06:11 r, 00.00m,0000564685Hz,0000000000c,0000000.000s, 031.5C,00002195
2015-10-21 12:16:11 r, 00.00m,0000564738Hz,0000000000c,0000000.000s, 031.9C,00002195
2015-10-21 12:26:10 r, 00.00m,0000564699Hz,0000000000c,0000000.000s, 032.2C,00002195
2015-10-21 12:36:11 r, 00.00m,0000564797Hz,0000000000c,0000000.000s, 032.5C,00002195
2015-10-21 12:46:13 r, 00.00m,0000564786Hz,0000000000c,0000000.000s, 032.8C,00002195
2015-10-21 12:56:10 r, 00.00m,0000564763Hz,0000000000c,0000000.000s, 033.1C,00002195
2015-10-21 13:06:10 r, 00.00m,0000564841Hz,0000000000c,0000000.000s, 033.5C,00002195
2015-10-21 13:16:11 r, 00.00m,0000564862Hz,0000000000c,0000000.000s, 033.5C,00002195
2015-10-21 13:26:11 r, 00.00m,0000564855Hz,0000000000c,0000000.000s, 033.8C,00002195
2015-10-21 13:36:11 r, 00.00m,0000564881Hz,0000000000c,0000000.000s, 033.8C,00002195
2015-10-21 13:46:11 r, 00.00m,0000564957Hz,0000000000c,0000000.000s, 034.1C,00002195
2015-10-21 13:56:11 r, 00.00m,0000564987Hz,0000000000c,0000000.000s, 034.8C,00002195
2015-10-21 14:06:11 r, 00.00m,0000564984Hz,0000000000c,0000000.000s, 034.4C,00002195
2015-10-21 14:16:12 r, 00.00m,0000564872Hz,0000000000c,0000000.000s, 034.1C,00002195
2015-10-21 14:26:11 r, 00.00m,0000564942Hz,0000000000c,0000000.000s, 034.1C,00002195
2015-10-21 14:36:11 r, 00.00m,0000564881Hz,0000000000c,0000000.000s, 034.4C,00002195
2015-10-21 14:46:11 r, 00.00m,0000564836Hz,0000000000c,0000000.000s, 034.1C,00002195
2015-10-21 14:56:11 r, 00.00m,0000564829Hz,0000000000c,0000000.000s, 033.8C,00002195
2015-10-21 15:06:11 r, 00.00m,0000564829Hz,0000000000c,0000000.000s, 033.5C,00002195
2015-10-21 15:16:13 r, 00.00m,0000564781Hz,0000000000c,0000000.000s, 033.1C,00002195
2015-10-21 15:26:11 r, 00.00m,0000564746Hz,0000000000c,0000000.000s, 032.8C,00002195
2015-10-21 15:36:11 r, 00.00m,0000564645Hz,0000000000c,0000000.000s, 032.5C,00002195
2015-10-21 15:46:11 r, 00.00m,0000564662Hz,0000000000c,0000000.000s, 032.5C,00002195
2015-10-21 15:56:11 r, 00.00m,0000564664Hz,0000000000c,0000000.000s, 032.2C,00002195
2015-10-21 16:06:11 r, 00.00m,0000564559Hz,0000000000c,0000000.000s, 031.9C,00002195
2015-10-21 16:16:11 r, 00.00m,0000564533Hz,0000000000c,0000000.000s, 031.5C,00002195
2015-10-21 16:26:13 r, 00.00m,0000564347Hz,0000000000c,0000000.000s, 030.2C,00002195
2015-10-21 16:36:11 r, 00.00m,0000564270Hz,0000000000c,0000000.000s, 029.3C,00002195
2015-10-21 16:46:11 r, 00.00m,0000564347Hz,0000000000c,0000000.000s, 029.0C,00002195
2015-10-21 16:56:11 r, 00.00m,0000564089Hz,0000000000c,0000000.000s, 028.6C,00002195
2015-10-21 17:06:11 r, 00.00m,0000564083Hz,0000000000c,0000000.000s, 028.3C,00002195
2015-10-21 17:16:11 r, 00.00m,0000564082Hz,0000000000c,0000000.000s, 028.3C,00002195
2015-10-21 17:26:11 r, 00.00m,0000564119Hz,0000000000c,0000000.000s, 028.0C,00002195
2015-10-21 17:36:11 r, 00.00m,0000553012Hz,0000000000c,0000000.000s, 028.0C,00002195
2015-10-21 17:46:11 r, 00.00m,0000485548Hz,0000000000c,0000000.000s, 028.0C,00002195
2015-10-21 17:56:11 r, 05.94m,0000376332Hz,0000000000c,0000000.000s, 028.3C,00002195
2015-10-21 18:06:11 r, 06.33m,0000262031Hz,0000000000c,0000000.000s, 028.0C,00002195
2015-10-21 18:16:12 r, 06.99m,0000143247Hz,0000000000c,0000000.000s, 027.7C,00002195
2015-10-21 18:26:11 r, 07.76m,0000070172Hz,0000000000c,0000000.000s, 027.3C,00002195
2015-10-21 18:36:11 r, 08.82m,0000026425Hz,0000000000c,0000000.000s, 026.7C,00002195
2015-10-21 18:46:11 r, 10.62m,0000005050Hz,0000000000c,0000000.000s, 026.4C,00002195
2015-10-21 18:56:13 r, 12.66m,0000000767Hz,0000000000c,0000000.000s, 026.4C,00002195
2015-10-21 19:06:11 r, 14.83m,0000000104Hz,0000004467c,0000000.010s, 026.1C,00002195
2015-10-21 19:16:11 r, 16.57m,0000000020Hz,0000022268c,0000000.048s, 025.7C,00002195
2015-10-21 19:26:11 r, 17.65m,0000000008Hz,0000059555c,0000000.129s, 025.7C,00002195
2015-10-21 19:36:11 r, 18.11m,0000000005Hz,0000091534c,0000000.199s, 025.7C,00002195
2015-10-21 19:46:11 r, 18.28m,0000000004Hz,0000106533c,0000000.231s, 025.7C,00002195
2015-10-21 19:56:11 r, 18.31m,0000000005Hz,0000110359c,0000000.239s, 025.4C,00002195
2015-10-21 20:06:11 r, 18.34m,0000000004Hz,0000112906c,0000000.245s, 025.4C,00002195
2015-10-21 20:16:11 r, 18.33m,0000000004Hz,0000112410c,0000000.244s, 025.1C,00002195
2015-10-21 20:26:13 r, 18.34m,0000000004Hz,0000113157c,0000000.246s, 025.1C,00002195
2015-10-21 20:36:11 r, 18.36m,0000000004Hz,0000115211c,0000000.250s, 025.1C,00002195
2015-10-21 20:46:12 r, 18.36m,0000000004Hz,0000114310c,0000000.248s, 024.8C,00002195
2015-10-21 20:56:11 r, 18.36m,0000000004Hz,0000115299c,0000000.250s, 024.4C,00002195
2015-10-21 21:06:11 r, 18.37m,0000000004Hz,0000116002c,0000000.252s, 024.1C,00002195
2015-10-21 21:16:11 r, 18.38m,0000000004Hz,0000117052c,0000000.254s, 023.8C,00002195
2015-10-21 21:26:11 r, 18.38m,0000000004Hz,0000117108c,0000000.254s, 023.8C,00002195
2015-10-21 21:36:11 r, 18.39m,0000000003Hz,0000117177c,0000000.254s, 023.5C,00002195
2015-10-21 21:46:13 r, 18.43m,0000000004Hz,0000121243c,0000000.263s, 023.5C,00002195
2015-10-21 21:56:11 r, 18.43m,0000000004Hz,0000121168c,0000000.263s, 023.5C,00002195
2015-10-21 22:06:11 r, 18.43m,0000000004Hz,0000121992c,0000000.265s, 023.2C,00002195
2015-10-21 22:16:11 r, 18.44m,0000000003Hz,0000122847c,0000000.267s, 023.2C,00002195
2015-10-21 22:26:11 r, 18.45m,0000000004Hz,0000123954c,0000000.269s, 023.2C,00002195
2015-10-21 22:36:11 r, 18.46m,0000000004Hz,0000125665c,0000000.273s, 022.8C,00002195
2015-10-21 22:46:11 r, 18.47m,0000000004Hz,0000126528c,0000000.275s, 022.5C,00002195
2015-10-21 22:56:12 r, 18.48m,0000000004Hz,0000127690c,0000000.277s, 022.2C,00002195
2015-10-21 23:06:12 r, 18.49m,0000000004Hz,0000128721c,0000000.279s, 022.2C,00002195
2015-10-21 23:16:12 r, 18.51m,0000000004Hz,0000130596c,0000000.283s, 021.9C,00002195
2015-10-21 23:26:12 r, 18.51m,0000000003Hz,0000131571c,0000000.286s, 021.9C,00002195
2015-10-21 23:36:11 r, 18.53m,0000000003Hz,0000133324c,0000000.289s, 021.5C,00002195
2015-10-21 23:46:13 r, 18.55m,0000000004Hz,0000135614c,0000000.294s, 021.5C,00002195
2015-10-21 23:56:12 r, 18.56m,0000000003Hz,0000137290c,0000000.298s, 021.5C,00002195
